�N����,����,�g�[���i���ԁj���x,�g�[�����x,��g�[���i���ցj���x,����
 2003/07/01, 0:00,27.3,66,26.8,23.7
 2003/07/01, 0:15,27.3,66,26.8,23.7
 2003/07/01, 0:30,27.3,66,26.8,23.8
 2003/07/01, 0:45,27.9,66.5,26.8,23.9
 2003/07/01, 1:00,27.6,67,26.8,23.9
 2003/07/01, 1:15,27.4,67,26.8,23.9
 2003/07/01, 1:30,27.1,68,26.7,24
 2003/07/01, 1:45,27,67,26.6,24
 2003/07/01, 2:00,27.1,67,26.6,24.1
 2003/07/01, 2:15,26.9,68,26.5,24.1
 2003/07/01, 2:30,26.8,68,26.4,24.1
 2003/07/01, 2:45,26.8,69,26.4,24.2
 2003/07/01, 3:00,26.7,69,26.4,24.2
 2003/07/01, 3:15,26.6,69,26.3,24.2
 2003/07/01, 3:30,26.6,69,26.2,24.3
 2003/07/01, 3:45,26.5,69,26.2,24.4
 2003/07/01, 4:00,26.5,69,26.1,24.4
 2003/07/01, 4:15,26.4,69,26.1,24.4
 2003/07/01, 4:30,26.3,69,26,24.4
 2003/07/01, 4:45,26.2,70,26,24.5
 2003/07/01, 5:00,26.2,70,25.9,24.5
 2003/07/01, 5:15,26,70,25.8,24.5
 2003/07/01, 5:30,26,70,25.8,24.6
 2003/07/01, 5:45,26,70,25.8,24.6
 2003/07/01, 6:00,26,70,25.8,24.6
 2003/07/01, 6:15,25.9,70,25.8,24.6
 2003/07/01, 6:30,25.8,70,25.7,24.7
 2003/07/01, 6:45,25.8,70,25.7,24.7
 2003/07/01, 7:00,25.8,70,25.7,24.7
 2003/07/01, 7:15,25.7,70.5,25.6,24.7
 2003/07/01, 7:30,25.7,71,25.6,24.7
 2003/07/01, 7:45,25.8,71,25.5,23.5
 2003/07/01, 8:00,26,72,25.6,23.5
 2003/07/01, 8:15,26.1,71,25.7,23.6
 2003/07/01, 8:30,26.2,71,25.8,23.6
 2003/07/01, 8:45,26.2,71,25.8,23.6
 2003/07/01, 9:00,26.2,71,25.8,23.7
 2003/07/01, 9:15,26.2,71,25.8,23.7
 2003/07/01, 9:30,26.2,71,25.8,23.8
 2003/07/01, 9:45,26.2,71,25.9,23.8
 2003/07/01,10:00,26.2,70,25.9,23.8
 2003/07/01,10:15,26.2,71,25.9,23.9
 2003/07/01,10:30,26.2,72,25.9,23.9
 2003/07/01,10:45,26.2,71.5,25.9,23.9
 2003/07/01,11:00,26.2,72,26,23.9
 2003/07/01,11:15,26.1,72,26,24
 2003/07/01,11:30,26.1,72,26.1,24
 2003/07/01,11:45,26,73,26.1,24
 2003/07/01,12:00,26,73,26.1,24.1
 2003/07/01,12:15,26,73,26.2,24.1
 2003/07/01,12:30,26.1,73,26.4,24.1
 2003/07/01,12:45,26.1,73,26.5,24.2
 2003/07/01,13:00,26.2,73,26.4,24.2
 2003/07/01,13:15,26.1,73,26.3,24.2
 2003/07/01,13:30,26.2,73,26.3,24.3
 2003/07/01,13:45,26.2,73,26.2,24.3
 2003/07/01,14:00,26.3,72,26.1,24.3
 2003/07/01,14:15,26.1,73,26.1,24.4
 2003/07/01,14:30,26.1,73,26.1,24.4
 2003/07/01,14:45,26,73.5,26,24.4
 2003/07/01,15:00,26,74,26,24.4
 2003/07/01,15:15,26,74,25.9,24.5
 2003/07/01,15:30,26,74,25.8,24.5
 2003/07/01,15:45,25.9,74,25.8,24.5
 2003/07/01,16:00,25.9,74,25.6,24.6
 2003/07/01,16:15,26,74,25.6,24.6
 2003/07/01,16:30,25.9,74,25.6,24.6
 2003/07/01,16:45,25.9,74,25.5,24.6
 2003/07/01,17:00,25.8,74,25.5,24.6
 2003/07/01,17:15,25.6,75,25.4,24.7
 2003/07/01,17:30,25.5,76,25.4,24.7
 2003/07/01,17:45,25.4,76.5,25.3,24.7
 2003/07/01,18:00,25.4,76,25.2,24.7
 2003/07/01,18:15,25.3,76,25.1,24.7
 2003/07/01,18:30,25.3,76,25,24.8
 2003/07/01,18:45,25.1,75.5,25,24.8
 2003/07/01,19:00,25,75,24.9,24.8
 2003/07/01,19:15,25,75,24.8,24.8
 2003/07/01,19:30,25,75,24.8,24.8
 2003/07/01,19:45,25.1,74.5,24.7,24.8
 2003/07/01,20:00,25,74,24.7,24.8
 2003/07/01,20:15,25,74,24.6,24.8
 2003/07/01,20:30,25,75,24.6,24.8
 2003/07/01,20:45,24.9,74,24.5,24.8
 2003/07/01,21:00,24.7,75,24.4,24.8
 2003/07/01,21:15,24.7,75,24.4,24.8
 2003/07/01,21:30,24.7,75,24.4,24.8
 2003/07/01,21:45,24.6,75,24.4,24.8
 2003/07/01,22:00,24.5,75,24.3,24.8
 2003/07/01,22:15,24.6,74.5,24.2,24.8
 2003/07/01,22:30,24.6,74,24.2,24.8
 2003/07/01,22:45,24.7,74,24.2,24.8
 2003/07/01,23:00,24.8,75,24.2,24.8
 2003/07/01,23:15,24.7,74,24.1,24.8
 2003/07/01,23:30,24.7,76,24.1,24.7
 2003/07/01,23:45,24.6,74.5,24.1,24.7
 2003/07/02, 0:00,24.5,75,24.1,24.7
 2003/07/02, 0:15,24.8,76,24.1,24.7
 2003/07/02, 0:30,24.7,76,24.1,24.7
 2003/07/02, 0:45,24.5,75,24,24.7
 2003/07/02, 1:00,24.4,75,23.9,24.6
 2003/07/02, 1:15,24.2,75,23.9,23.2
 2003/07/02, 1:30,24.2,75,23.8,23.2
 2003/07/02, 1:45,24.1,75,23.8,23.2
 2003/07/02, 2:00,24.1,75,23.8,23.2
 2003/07/02, 2:15,24,76,23.8,23.3
 2003/07/02, 2:30,24,77,23.7,23.3
 2003/07/02, 2:45,24,77,23.6,23.3
 2003/07/02, 3:00,23.8,77,23.5,23.3
 2003/07/02, 3:15,23.8,77.5,23.5,23.3
 2003/07/02, 3:30,23.7,78,23.5,23.3
 2003/07/02, 3:45,23.6,78,23.4,23.3
 2003/07/02, 4:00,23.5,78,23.3,23.3
 2003/07/02, 4:15,23.5,78,23.2,23.3
 2003/07/02, 4:30,23.6,77,23.2,23.3
 2003/07/02, 4:45,23.4,78,23.1,23.3
 2003/07/02, 5:00,23.3,78,23,23.3
 2003/07/02, 5:15,23.2,78,23,23.3
 2003/07/02, 5:30,23.2,78,22.9,22.5
 2003/07/02, 5:45,23.1,78,22.9,22.5
 2003/07/02, 6:00,23.1,78,22.9,22.5
 2003/07/02, 6:15,23,78,23,22.5
 2003/07/02, 6:30,23,78,23,22.5
 2003/07/02, 6:45,23,78,23,22.6
 2003/07/02, 7:00,23,78,23.1,22.6
 2003/07/02, 7:15,23.1,78.5,23.2,22.3
 2003/07/02, 7:30,23.3,78,23.2,22.3
 2003/07/02, 7:45,23.5,78.5,23.4,22.4
 2003/07/02, 8:00,23.6,78,23.6,22.4
 2003/07/02, 8:15,23.8,77.5,23.8,22.4
 2003/07/02, 8:30,23.9,77,23.9,22.4
 2003/07/02, 8:45,24,77,24,22.4
 2003/07/02, 9:00,24.1,76,24.1,22.5
 2003/07/02, 9:15,24.3,75.5,24.2,22.5
 2003/07/02, 9:30,24.4,76,24.4,22.5
 2003/07/02, 9:45,24.5,75,24.5,22.5
 2003/07/02,10:00,24.7,75,24.6,22.6
 2003/07/02,10:15,24.9,74.5,24.8,22.6
 2003/07/02,10:30,25,74,25,22.6
 2003/07/02,10:45,25.1,73.5,25.1,22.6
 2003/07/02,11:00,25.2,73,25.3,22.7
 2003/07/02,11:15,25.3,73,25.5,22.7
 2003/07/02,11:30,25.5,72,25.6,22.8
 2003/07/02,11:45,25.5,72.5,25.9,22.8
 2003/07/02,12:00,25.7,72,26.1,22.9
 2003/07/02,12:15,25.8,72,26.3,23
 2003/07/02,12:30,25.9,72,26.4,23
 2003/07/02,12:45,26,71.5,26.5,23
 2003/07/02,13:00,26.1,71,26.8,23.1
 2003/07/02,13:15,26.2,71.5,27,23.2
 2003/07/02,13:30,26.5,71,27.3,23.2
 2003/07/02,13:45,26.8,70,27.5,23.3
 2003/07/02,14:00,27,69,27.5,23.4
 2003/07/02,14:15,27,70,27.7,23.5
 2003/07/02,14:30,27.3,69,28,23.5
 2003/07/02,14:45,27.7,67.5,28.5,23.6
 2003/07/02,15:00,28,66,28.7,23.7
 2003/07/02,15:15,28,67,28.7,23.8
 2003/07/02,15:30,28,68,29.3,23.9
 2003/07/02,15:45,28.2,67.5,30.6,24
 2003/07/02,16:00,28.2,68,30.8,24
 2003/07/02,16:15,28.2,68,33.5,24.1
 2003/07/02,16:30,28.6,66,35.7,24.2
 2003/07/02,16:45,28.9,65.5,36,24.3
 2003/07/02,17:00,29.2,65,36.1,24.4
 2003/07/02,17:15,29.4,64.5,35.6,24.5
 2003/07/02,17:30,29.4,64,35.4,24.6
 2003/07/02,17:45,29.3,64,32.7,24.6
 2003/07/02,18:00,28.9,65,30.6,24.8
 2003/07/02,18:15,28.5,66.5,29.7,24.9
 2003/07/02,18:30,28.3,67,29.2,25
 2003/07/02,18:45,28,67,28.8,25
 2003/07/02,19:00,27.8,67,28.4,25.2
 2003/07/02,19:15,27.6,68,28,25.2
 2003/07/02,19:30,27.4,72,27.8,25.4
 2003/07/02,19:45,27.2,71.5,27.6,25.5
 2003/07/02,20:00,27.1,71,27.4,25.6
 2003/07/02,20:15,27,71,27.2,25.6
 2003/07/02,20:30,26.9,71,27,25.7
 2003/07/02,20:45,26.8,70.5,26.9,25.8
 2003/07/02,21:00,26.7,70,26.8,25.9
 2003/07/02,21:15,26.5,69,26.5,26
 2003/07/02,21:30,26.4,69,26.5,26
 2003/07/02,21:45,26.4,69,26.4,26.1
 2003/07/02,22:00,26.2,69,26.2,26.1
 2003/07/02,22:15,26.1,69,26.1,26.2
 2003/07/02,22:30,26,69,25.9,26.2
 2003/07/02,22:45,26,69,25.8,26.2
 2003/07/02,23:00,25.8,69,25.7,26.3
 2003/07/02,23:15,25.6,68,25.5,26.3
 2003/07/02,23:30,25.6,68,25.4,26.3
 2003/07/02,23:45,25.5,68,25.3,26.4
 2003/07/03, 0:00,25.4,69,25.2,26.4
 2003/07/03, 0:15,25.3,67.5,25,26.4
 2003/07/03, 0:30,25.2,68,25,26.4
 2003/07/03, 0:45,25.1,68,25,26.4
 2003/07/03, 1:00,25.2,68,24.8,26.4
 2003/07/03, 1:15,25,69,24.8,25
 2003/07/03, 1:30,24.9,69,24.7,23.7
 2003/07/03, 1:45,24.9,70,24.6,23.8
 2003/07/03, 2:00,24.7,70,24.5,23.8
 2003/07/03, 2:15,24.6,70,24.4,23.9
 2003/07/03, 2:30,24.5,70,24.3,23.9
 2003/07/03, 2:45,24.5,70,24.2,23.9
 2003/07/03, 3:00,24.4,70,24.2,23.9
 2003/07/03, 3:15,24.2,70,24,23.9
 2003/07/03, 3:30,24.1,71,24,23.9
 2003/07/03, 3:45,24.1,70,23.9,24
 2003/07/03, 4:00,24,70,23.8,24
 2003/07/03, 4:15,24,70.5,23.8,24
 2003/07/03, 4:30,23.9,71,23.7,24
 2003/07/03, 4:45,23.8,70,23.6,24
 2003/07/03, 5:00,23.7,71,23.5,24
 2003/07/03, 5:15,23.6,71,23.5,24
 2003/07/03, 5:30,23.6,71,23.5,24
 2003/07/03, 5:45,23.5,71,23.5,23.1
 2003/07/03, 6:00,23.5,71,23.5,22.3
 2003/07/03, 6:15,23.5,71,23.5,22.3
 2003/07/03, 6:30,23.4,71,23.5,22.4
 2003/07/03, 6:45,23.4,71,23.6,22.4
 2003/07/03, 7:00,23.4,71,23.7,22.4
 2003/07/03, 7:15,23.4,71,23.7,22.5
 2003/07/03, 7:30,23.3,71,23.8,22.5
 2003/07/03, 7:45,23.5,71,23.8,22.5
 2003/07/03, 8:00,23.5,70,23.8,22
 2003/07/03, 8:15,23.6,71,23.9,22
 2003/07/03, 8:30,23.6,71,23.9,22.1
 2003/07/03, 8:45,23.5,71,24,22.1
 2003/07/03, 9:00,23.6,71,24.1,22.2
 2003/07/03, 9:15,23.6,71,24.1,22.2
 2003/07/03, 9:30,23.6,71,24.1,22.2
 2003/07/03, 9:45,23.7,71,24.1,22.3
 2003/07/03,10:00,23.7,71,24.1,22.3
 2003/07/03,10:15,23.8,71,24.1,22.3
 2003/07/03,10:30,23.8,71,24.1,22.4
 2003/07/03,10:45,23.8,72,24.1,22.4
 2003/07/03,11:00,23.8,72,24.1,22.4
 2003/07/03,11:15,23.8,72,24.1,22.5
 2003/07/03,11:30,23.8,72,24.1,22.5
 2003/07/03,11:45,23.9,72,24.2,22.5
 2003/07/03,12:00,23.8,72,24.2,22.6
 2003/07/03,12:15,23.9,73,24.2,22.6
 2003/07/03,12:30,23.9,72,24.1,22.7
 2003/07/03,12:45,23.9,72,24.1,22.7
 2003/07/03,13:00,23.8,73,24,22.7
 2003/07/03,13:15,23.8,73,24,22.8
 2003/07/03,13:30,23.8,73,24.1,22.8
 2003/07/03,13:45,23.8,73.5,24.1,22.8
 2003/07/03,14:00,23.8,73,24.1,22.8
 2003/07/03,14:15,23.8,73,24.2,22.9
 2003/07/03,14:30,23.8,73,24.2,22.9
 2003/07/03,14:45,23.8,73,24.2,23
 2003/07/03,15:00,23.8,73,24.2,23
 2003/07/03,15:15,23.8,73,24.2,23
 2003/07/03,15:30,23.8,73,24.2,23
 2003/07/03,15:45,23.9,73.5,24.1,23.1
 2003/07/03,16:00,23.9,73,24.3,23.1
 2003/07/03,16:15,23.9,74.5,24.4,23.1
 2003/07/03,16:30,23.9,74,24.3,23.1
 2003/07/03,16:45,23.9,73.5,24.2,23.2
 2003/07/03,17:00,23.9,73,24.2,23.2
 2003/07/03,17:15,23.9,74,24.1,23.2
 2003/07/03,17:30,23.9,74,24,23.3
 2003/07/03,17:45,23.9,74,24,23.3
 2003/07/03,18:00,23.9,73,24,23.3
 2003/07/03,18:15,23.9,74,23.9,23.3
 2003/07/03,18:30,23.9,74,23.9,23.4
 2003/07/03,18:45,23.9,74,23.9,23.4
 2003/07/03,19:00,23.9,74,23.8,22.3
 2003/07/03,19:15,24,74.5,23.9,22.3
 2003/07/03,19:30,24,75,23.8,22.3
 2003/07/03,19:45,24.1,74,23.8,22.4
 2003/07/03,20:00,24.2,74,23.8,22.4
 2003/07/03,20:15,24.2,74,23.8,22.5
 2003/07/03,20:30,24.4,74,23.9,22.5
 2003/07/03,20:45,24.3,74,23.9,22.5
 2003/07/03,21:00,24.3,73,23.8,22.5
 2003/07/03,21:15,24.4,73,23.9,22.6
 2003/07/03,21:30,24.4,73,23.8,22.6
 2003/07/03,21:45,24.3,73,23.8,22.6
 2003/07/03,22:00,24.2,74,23.8,22.7
 2003/07/03,22:15,24.2,74,23.8,22.7
 2003/07/03,22:30,24.2,74,23.8,22.4
 2003/07/03,22:45,24,74,23.8,22.5
 2003/07/03,23:00,24,75,23.8,22.5
 2003/07/03,23:15,24,76.5,23.9,22.5
 2003/07/03,23:30,24,77,24,22.5
 2003/07/03,23:45,24,78,24,22.6
 2003/07/04, 0:00,24.1,78,24.1,22.6
 2003/07/04, 0:15,24,77.5,24,22.6
 2003/07/04, 0:30,24.1,77,24.1,22.6
 2003/07/04, 0:45,24.1,77,24.1,22.7
 2003/07/04, 1:00,24.1,77,24.1,22.7
 2003/07/04, 1:15,24.1,77,24,22.7
 2003/07/04, 1:30,24.1,77,24.1,22.8
 2003/07/04, 1:45,24.1,77,24,22.8
 2003/07/04, 2:00,24.1,77,24.1,22.8
 2003/07/04, 2:15,24.1,77,24,22.8
 2003/07/04, 2:30,24.1,77,24,22.9
 2003/07/04, 2:45,24.1,77,24,22.9
 2003/07/04, 3:00,24.1,77,24,22.9
 2003/07/04, 3:15,24.1,77,24,22.9
 2003/07/04, 3:30,24,77,24,23
 2003/07/04, 3:45,24,76.5,23.9,22.5
 2003/07/04, 4:00,24.1,77,23.9,22.5
 2003/07/04, 4:15,24.1,77,24,22.5
 2003/07/04, 4:30,24,77,24,22.5
 2003/07/04, 4:45,24,77,24,22.5
 2003/07/04, 5:00,24,77,23.9,22.6
 2003/07/04, 5:15,24,77,24,22.6
 2003/07/04, 5:30,24,77,24,22.6
 2003/07/04, 5:45,24,77,24,22.7
 2003/07/04, 6:00,24,77,24.1,22.7
 2003/07/04, 6:15,24,76,24.1,22.7
 2003/07/04, 6:30,24,76,24.2,22.8
 2003/07/04, 6:45,24,76.5,24.2,22.8
 2003/07/04, 7:00,24.1,76,24.4,22.8
 2003/07/04, 7:15,24.1,76,24.4,22.9
 2003/07/04, 7:30,24.2,76,24.6,22.4
 2003/07/04, 7:45,24.2,76,24.8,22.5
 2003/07/04, 8:00,24.5,75,24.8,22.6
 2003/07/04, 8:15,24.5,75,24.9,22.6
 2003/07/04, 8:30,24.7,75,25.1,22.6
 2003/07/04, 8:45,24.8,75,25.2,22.7
 2003/07/04, 9:00,24.9,75,25.2,22.7
 2003/07/04, 9:15,25,74,25.2,22.8
 2003/07/04, 9:30,25,74,25.2,22.8
 2003/07/04, 9:45,25,74,25.2,22.9
 2003/07/04,10:00,25.1,74,25.3,22.9
 2003/07/04,10:15,25.1,74,25.4,22.9
 2003/07/04,10:30,25.2,74,25.4,23
 2003/07/04,10:45,25.2,74,25.5,23
 2003/07/04,11:00,25.2,74,25.6,23.1
 2003/07/04,11:15,25.3,74,25.8,23.1
 2003/07/04,11:30,25.4,74,25.9,23.2
 2003/07/04,11:45,25.5,73.5,26.2,23.2
 2003/07/04,12:00,25.6,73,26.3,23.2
 2003/07/04,12:15,25.8,73,26.5,23.3
 2003/07/04,12:30,25.9,72,26.7,23.3
 2003/07/04,12:45,26,72,26.8,23.4
 2003/07/04,13:00,26.1,72,27,23.5
 2003/07/04,13:15,26.4,71.5,27.2,23.5
 2003/07/04,13:30,26.5,71,27.4,23.6
 2003/07/04,13:45,26.7,70,27.5,23.6
 2003/07/04,14:00,27,69,27.7,23.7
 2003/07/04,14:15,27.5,68.5,28,23.8
 2003/07/04,14:30,27.6,68,27.8,23.8
 2003/07/04,14:45,27.4,69.5,27.5,23.9
 2003/07/04,15:00,27.1,70,27.5,23.9
 2003/07/04,15:15,27,71,27.4,24
 2003/07/04,15:30,27,72,27.3,24.1
 2003/07/04,15:45,26.9,72,27.1,24.1
 2003/07/04,16:00,26.8,72,27,24.2
 2003/07/04,16:15,26.8,73,27,24.2
 2003/07/04,16:30,26.7,74,26.9,24.3
 2003/07/04,16:45,26.6,75,26.8,24.4
 2003/07/04,17:00,26.6,76,26.7,24.5
 2003/07/04,17:15,26.5,75.5,26.9,24.5
 2003/07/04,17:30,26.5,75,26.9,24.6
 2003/07/04,17:45,26.5,75.5,26.8,24.6
 2003/07/04,18:00,26.4,76,26.6,24.7
 2003/07/04,18:15,26.4,75.5,26.5,24.8
 2003/07/04,18:30,26.3,76,26.4,24.8
 2003/07/04,18:45,26.3,76,26.3,24.9
 2003/07/04,19:00,26.2,74,26.2,24.9
 2003/07/04,19:15,26,72.5,25.9,25
 2003/07/04,19:30,25.9,70,25.8,25
 2003/07/04,19:45,26,68,25.8,25
 2003/07/04,20:00,25.9,68,25.7,25.1
 2003/07/04,20:15,26,68,25.6,25.1
 2003/07/04,20:30,26,69,25.5,25.2
 2003/07/04,20:45,25.9,69,25.5,25.2
 2003/07/04,21:00,25.8,69,25.5,25.3
 2003/07/04,21:15,25.7,69.5,25.5,25.3
 2003/07/04,21:30,25.6,70,25.4,25.3
 2003/07/04,21:45,25.6,69.5,25.3,25.4
 2003/07/04,22:00,25.5,70,25.3,25.4
 2003/07/04,22:15,25.5,70,25.2,25.4
 2003/07/04,22:30,25.4,71,25.2,25.4
 2003/07/04,22:45,25.4,70.5,25.1,25.5
 2003/07/04,23:00,25.3,70,25.1,25.5
 2003/07/04,23:15,25.3,70.5,25,25.5
 2003/07/04,23:30,25.2,72,25,25.5
 2003/07/04,23:45,25.1,72,24.9,25.5
 2003/07/05, 0:00,25,72,24.8,25.5
 2003/07/05, 0:15,25,72,24.8,25.5
 2003/07/05, 0:30,24.9,71,24.7,25.5
 2003/07/05, 0:45,24.9,72,24.7,25.5
 2003/07/05, 1:00,24.8,71,24.6,22.8
 2003/07/05, 1:15,24.8,71.5,24.5,22.9
 2003/07/05, 1:30,24.7,72,24.5,22.9
 2003/07/05, 1:45,24.6,72,24.4,23
 2003/07/05, 2:00,24.6,72,24.4,23
 2003/07/05, 2:15,24.5,72,24.3,23.1
 2003/07/05, 2:30,24.5,72,24.2,23.1
 2003/07/05, 2:45,24.4,72.5,24.2,23.1
 2003/07/05, 3:00,24.4,72,24.1,23.2
 2003/07/05, 3:15,24.4,73,24.1,23.2
 2003/07/05, 3:30,24.3,73,24.1,23.2
 2003/07/05, 3:45,24.3,73,24.1,23.2
 2003/07/05, 4:00,24.3,73,24,23.3
 2003/07/05, 4:15,24.2,73,24,23.3
 2003/07/05, 4:30,24.1,73,23.9,23.3
 2003/07/05, 4:45,24.1,73,23.9,23.3
 2003/07/05, 5:00,24,73,23.8,23.4
 2003/07/05, 5:15,24,73,23.8,23.4
 2003/07/05, 5:30,23.9,73,23.8,23.4
 2003/07/05, 5:45,23.9,73,23.8,23.4
 2003/07/05, 6:00,23.9,73,23.8,23.4
 2003/07/05, 6:15,23.9,73,23.8,23.4
 2003/07/05, 6:30,23.8,73,23.7,23.4
 2003/07/05, 6:45,23.8,73,23.8,23.4
 2003/07/05, 7:00,23.7,73,23.8,23.5
 2003/07/05, 7:15,23.7,73.5,23.8,23.5
 2003/07/05, 7:30,23.7,73,23.8,23.5
 2003/07/05, 7:45,23.7,74,23.8,23.5
 2003/07/05, 8:00,23.7,74,23.8,23.5
 2003/07/05, 8:15,23.6,74,23.7,23.5
 2003/07/05, 8:30,23.7,74,23.7,23.5
 2003/07/05, 8:45,23.6,74,23.7,23.5
 2003/07/05, 9:00,23.6,74,23.7,23.5
 2003/07/05, 9:15,23.6,74,23.8,23.5
 2003/07/05, 9:30,23.6,74,23.8,23.5
 2003/07/05, 9:45,23.6,74,23.8,23.5
 2003/07/05,10:00,23.6,74,23.8,23.6
 2003/07/05,10:15,23.6,74,23.8,23.6
 2003/07/05,10:30,23.6,74,23.9,23.6
 2003/07/05,10:45,23.6,74,24,23.6
 2003/07/05,11:00,23.6,75,24,23.6
 2003/07/05,11:15,23.6,74,24,23.6
 2003/07/05,11:30,23.7,75,24.2,23.6
 2003/07/05,11:45,23.8,75,24.2,23.6
 2003/07/05,12:00,23.8,75,24.3,23.6
 2003/07/05,12:15,24,76,24.4,23.1
 2003/07/05,12:30,24.1,76,24.4,23.1
 2003/07/05,12:45,24.2,76.5,24.5,23.1
 2003/07/05,13:00,24.3,76,24.7,23.2
 2003/07/05,13:15,24.5,76.5,25,22.9
 2003/07/05,13:30,24.7,77,25.6,22.5
 2003/07/05,13:45,25.1,75,25.9,22.5
 2003/07/05,14:00,25.3,74,25.8,22.6
 2003/07/05,14:15,25.3,75,25.8,22.6
 2003/07/05,14:30,25.3,74,25.8,22.7
 2003/07/05,14:45,25.4,74,25.8,22.7
 2003/07/05,15:00,25.5,75,25.9,22.8
 2003/07/05,15:15,25.5,74.5,26.2,22.8
 2003/07/05,15:30,25.7,75,27.5,22.9
 2003/07/05,15:45,26.1,74.5,28.5,22.9
 2003/07/05,16:00,26.4,74,28.1,23
 2003/07/05,16:15,26.5,74,28.1,23
 2003/07/05,16:30,26.4,75,27.1,23.1
 2003/07/05,16:45,26.3,75.5,26.7,23.1
 2003/07/05,17:00,26.1,76,26.4,23.2
 2003/07/05,17:15,26,77,26.2,23.2
 2003/07/05,17:30,25.9,77,26.2,23.3
 2003/07/05,17:45,25.9,78,26.1,23.4
 2003/07/05,18:00,25.9,78,26,23.4
 2003/07/05,18:15,25.8,78,26,23.5
 2003/07/05,18:30,25.7,78,25.9,23.5
 2003/07/05,18:45,25.7,79,25.8,23.6
 2003/07/05,19:00,25.6,80,25.8,23.6
 2003/07/05,19:15,25.7,80,25.7,23.7
 2003/07/05,19:30,25.7,80,25.7,23.8
 2003/07/05,19:45,25.8,79.5,25.6,23.8
 2003/07/05,20:00,25.8,79,25.6,23.9
 2003/07/05,20:15,25.9,79,25.5,23.9
 2003/07/05,20:30,25.8,78,25.5,23.9
 2003/07/05,20:45,25.9,78,25.5,24
 2003/07/05,21:00,25.8,78,25.5,24.1
 2003/07/05,21:15,25.8,78,25.5,24.1
 2003/07/05,21:30,25.8,78,25.4,24.1
 2003/07/05,21:45,25.8,78,25.4,24.2
 2003/07/05,22:00,25.8,78,25.4,24.2
 2003/07/05,22:15,25.9,78,25.4,24.2
 2003/07/05,22:30,26,77,25.4,24.3
 2003/07/05,22:45,26,77,25.4,23.5
 2003/07/05,23:00,26,77,25.4,23.5
 2003/07/05,23:15,26.1,77,25.4,23.6
 2003/07/05,23:30,26.1,77,25.4,23.6
 2003/07/05,23:45,26.1,76.5,25.4,23.6
 2003/07/06, 0:00,26.1,77,25.4,22.9
 2003/07/06, 0:15,26.2,77,25.5,22.9
 2003/07/06, 0:30,26.3,77,25.4,23
 2003/07/06, 0:45,26.3,76.5,25.4,23
 2003/07/06, 1:00,26.3,76,25.4,23.1
 2003/07/06, 1:15,26.3,76,25.4,23.1
 2003/07/06, 1:30,26.3,76,25.4,23.1
 2003/07/06, 1:45,26.3,76,25.4,23.2
 2003/07/06, 2:00,26.6,77,25.4,23.2
 2003/07/06, 2:15,26.5,77.5,25.5,23.2
 2003/07/06, 2:30,26.5,78,25.5,23.3
 2003/07/06, 2:45,26.6,78.5,25.5,23.3
 2003/07/06, 3:00,26.6,77,25.5,23.3
 2003/07/06, 3:15,26.5,77.5,25.5,23.4
 2003/07/06, 3:30,26.3,78,25.5,23.4
 2003/07/06, 3:45,26.2,78,25.5,23.4
 2003/07/06, 4:00,26.2,79,25.5,23.5
 2003/07/06, 4:15,26,78.5,25.5,23.5
 2003/07/06, 4:30,26,79,25.5,23.5
 2003/07/06, 4:45,26,79,25.4,23.5
 2003/07/06, 5:00,25.9,79,25.4,23.6
 2003/07/06, 5:15,25.8,79,25.4,23.6
 2003/07/06, 5:30,25.7,79,25.3,23.6
 2003/07/06, 5:45,25.6,79,25.4,23.6
 2003/07/06, 6:00,25.6,79,25.3,23.7
 2003/07/06, 6:15,25.5,79,25.3,23.7
 2003/07/06, 6:30,25.5,79,25.4,23.7
 2003/07/06, 6:45,25.5,79,25.5,23.8
 2003/07/06, 7:00,25.5,79,25.6,23.8
 2003/07/06, 7:15,25.5,79,25.5,23.8
 2003/07/06, 7:30,25.5,79,25.6,23.8
 2003/07/06, 7:45,25.5,79,25.6,23.9
 2003/07/06, 8:00,25.6,79,25.7,23.9
 2003/07/06, 8:15,25.5,79,25.7,23.9
 2003/07/06, 8:30,25.6,79,25.8,23.9
 2003/07/06, 8:45,25.6,78.5,25.9,24
 2003/07/06, 9:00,25.6,79,25.9,24
 2003/07/06, 9:15,25.7,78.5,26,23
 2003/07/06, 9:30,25.7,79,26.1,23
 2003/07/06, 9:45,25.9,78,26.2,23.1
 2003/07/06,10:00,26,78,26.4,23.1
 2003/07/06,10:15,26.4,77,26.5,23.2
 2003/07/06,10:30,26.6,76,26.8,23.2
 2003/07/06,10:45,26.8,77,26.8,23.3
 2003/07/06,11:00,26.8,76,27,23.3
 2003/07/06,11:15,27,75.5,27.2,23.4
 2003/07/06,11:30,27.3,75,27.4,23.4
 2003/07/06,11:45,27.4,74,27.5,23.1
 2003/07/06,12:00,27.6,74,27.8,23.1
 2003/07/06,12:15,27.9,73,28,23.2
 2003/07/06,12:30,28.1,73,28.2,23.3
 2003/07/06,12:45,28.2,72,28.3,23.3
 2003/07/06,13:00,28.3,72,28.3,23.4
 2003/07/06,13:15,28.4,72.5,28.6,23.5
 2003/07/06,13:30,28.5,71,28.7,23.5
 2003/07/06,13:45,28.6,71,28.8,23.5
 2003/07/06,14:00,28.7,70,28.7,23.5
 2003/07/06,14:15,28.8,69,28.8,23.6
 2003/07/06,14:30,28.8,69,28.9,23.6
 2003/07/06,14:45,29,68.5,29,23.7
 2003/07/06,15:00,28.8,68,28.8,23.8
 2003/07/06,15:15,28.6,68.5,28.6,23.9
 2003/07/06,15:30,28.7,68,28.6,23.9
 2003/07/06,15:45,28.6,67.5,28.5,24
 2003/07/06,16:00,28.5,69,28.5,24.1
 2003/07/06,16:15,28.4,69,28.4,24.2
 2003/07/06,16:30,28.3,69,28.2,24.3
 2003/07/06,16:45,28.2,70,28.2,24.4
 2003/07/06,17:00,28.3,70,28.2,24.4
 2003/07/06,17:15,28.2,71.5,28.1,24.5
 2003/07/06,17:30,28.2,72,28.1,24.6
 2003/07/06,17:45,28.1,72.5,28,24.6
 2003/07/06,18:00,28.1,73,28,24.7
 2003/07/06,18:15,28,74,28,24
 2003/07/06,18:30,27.9,74,27.8,24.1
 2003/07/06,18:45,27.9,74.5,27.8,24.1
 2003/07/06,19:00,27.9,75,27.7,24.2
 2003/07/06,19:15,27.9,74.5,27.6,24
 2003/07/06,19:30,28.2,75,27.6,23.8
 2003/07/06,19:45,28.1,75,27.5,23.9
 2003/07/06,20:00,28,75,27.5,23.9
 2003/07/06,20:15,27.9,75,27.4,24
 2003/07/06,20:30,27.8,74,27.3,24.1
 2003/07/06,20:45,27.8,74,27.2,24.1
 2003/07/06,21:00,27.7,73,27.1,24.2
 2003/07/06,21:15,27.6,73.5,27,24.2
 2003/07/06,21:30,27.6,74,27,24.3
 2003/07/06,21:45,27.5,74,27,24.3
 2003/07/06,22:00,27.6,74,27,24.4
 2003/07/06,22:15,27.4,75,26.9,24.4
 2003/07/06,22:30,27.6,75,26.8,24.4
 2003/07/06,22:45,27.9,75,26.9,24.5
 2003/07/06,23:00,28.1,75,26.9,24.5
 2003/07/06,23:15,27.8,75,26.8,24.5
 2003/07/06,23:30,27.7,75,26.8,24.6
 2003/07/06,23:45,27.7,75,26.8,24.6
 2003/07/07, 0:00,27.7,75,26.7,24.7
 2003/07/07, 0:15,27.6,74.5,26.7,24.7
 2003/07/07, 0:30,27.6,75,26.6,24.7
 2003/07/07, 0:45,27.5,74,26.6,24.8
 2003/07/07, 1:00,27.4,75,26.6,24.8
 2003/07/07, 1:15,27.4,75,26.6,24.8
 2003/07/07, 1:30,27.2,75,26.6,24.8
 2003/07/07, 1:45,27.1,75,26.6,24.9
 2003/07/07, 2:00,27.1,76,26.5,24.9
 2003/07/07, 2:15,27,76,26.5,24.9
 2003/07/07, 2:30,27.1,75,26.5,24.9
 2003/07/07, 2:45,27,75.5,26.5,25
 2003/07/07, 3:00,26.9,76,26.4,25
 2003/07/07, 3:15,26.8,76,26.3,25
 2003/07/07, 3:30,26.7,76,26.3,25
 2003/07/07, 3:45,26.7,76,26.3,25
 2003/07/07, 4:00,26.7,76,26.2,25.1
 2003/07/07, 4:15,26.5,77,26.1,25.1
 2003/07/07, 4:30,26.5,77,26.1,25.1
 2003/07/07, 4:45,26.5,77,26.1,25.1
 2003/07/07, 5:00,26.4,77,26,25.2
 2003/07/07, 5:15,26.3,77,26,25.2
 2003/07/07, 5:30,26.3,77,26,25.2
 2003/07/07, 5:45,26.2,77,25.9,25.2
 2003/07/07, 6:00,26.2,78,25.9,25.2
 2003/07/07, 6:15,26.1,77.5,25.9,25.2
 2003/07/07, 6:30,26.1,78,25.9,25.2
 2003/07/07, 6:45,26.1,78,25.9,25.3
 2003/07/07, 7:00,26.1,78,25.9,25.3
 2003/07/07, 7:15,26,78,26,25.3
 2003/07/07, 7:30,26,78,26,23.7
 2003/07/07, 7:45,26.2,78,26.1,23.7
 2003/07/07, 8:00,26.5,78,26.3,23.7
 2003/07/07, 8:15,26.5,78.5,26.4,23.8
 2003/07/07, 8:30,26.4,78,26.3,23.8
 2003/07/07, 8:45,26.5,77.5,26.4,23.9
 2003/07/07, 9:00,26.6,77,26.3,23.9
 2003/07/07, 9:15,26.6,77,26.4,23.9
 2003/07/07, 9:30,26.7,76,26.6,24
 2003/07/07, 9:45,26.8,76,26.6,24
 2003/07/07,10:00,26.9,76,26.7,24
 2003/07/07,10:15,27,76,26.7,24.1
 2003/07/07,10:30,27,75,26.8,24.1
 2003/07/07,10:45,27.1,74,26.9,24.1
 2003/07/07,11:00,27.2,74,27,24.2
 2003/07/07,11:15,27.2,74,26.9,24.2
 2003/07/07,11:30,27.2,75,27,24.2
 2003/07/07,11:45,27.4,74,27,24.3
 2003/07/07,12:00,27.4,75,26.9,24.3
 2003/07/07,12:15,27.4,74.5,27,24.3
 2003/07/07,12:30,27.5,74,27.3,24.4
 2003/07/07,12:45,27.6,74,27.6,24.4
 2003/07/07,13:00,27.7,73,27.9,24.4
 2003/07/07,13:15,27.8,73.5,28,24.5
 2003/07/07,13:30,27.8,74,28.1,24.5
 2003/07/07,13:45,28,73,28.4,24.5
 2003/07/07,14:00,28.2,73,28.6,24.6
 2003/07/07,14:15,28.6,71,29,24.6
 2003/07/07,14:30,28.8,70,29.4,24.7
 2003/07/07,14:45,28.9,69,29.7,24.7
 2003/07/07,15:00,29,69,29.7,24.8
 2003/07/07,15:15,28.9,70,29.6,24.8
 2003/07/07,15:30,28.9,70,30.5,24.9
 2003/07/07,15:45,29,69,30.4,24.9
 2003/07/07,16:00,28.9,68,31,25
 2003/07/07,16:15,29,68,31.9,25
 2003/07/07,16:30,29,68,30.6,25.1
 2003/07/07,16:45,29,69,31,25.1
 2003/07/07,17:00,29,69,29.9,25.2
 2003/07/07,17:15,29,69.5,29.5,25.3
 2003/07/07,17:30,28.8,70,29.2,25.4
 2003/07/07,17:45,28.8,71,29,25.5
 2003/07/07,18:00,28.7,71,28.9,25.5
 2003/07/07,18:15,28.6,71,28.8,25.6
 2003/07/07,18:30,28.6,72,28.7,25.6
 2003/07/07,18:45,28.5,71,28.6,25.7
 2003/07/07,19:00,28.5,72,28.6,25.8
 2003/07/07,19:15,28.4,73.5,28.5,25.9
 2003/07/07,19:30,28.4,74,28.4,25.9
 2003/07/07,19:45,28.6,74,28.4,26